WMT70PK LIPX-LEMD

Flight info

Callsign WMT70PK
Flight time N/A
Altitude 33000
Route LEGLO DCT GEKBA/N0440F350 DCT VAMTU DCT KOLON DCT GANGU DCT PADKO DCT DIVKO DCT NILDU DCT NENDA N975 RAMON/N0428F310 N975 ADUXO
Aircraft A21N/M-SDE2E3FGHIRWXY/LB1

Departure

Time 2026-04-28 18:20
Airport Verona Villafranca Valerio Catullo Airport (LIPX)

Arrival

Time N/A
Airport Adolfo Suárez Madrid–Barajas Airport (LEMD)
Time Latitude Longitude Altitude Speed Heading
2026-04-28 17:54 45.40413 10.90539 242 ft 0 kts 135°
2026-04-28 18:11 45.40410 10.90542 242 ft 2 kts 135°
2026-04-28 18:11 45.40392 10.90568 242 ft 5 kts 135°
2026-04-28 18:11 45.40360 10.90565 242 ft 7 kts 232°
2026-04-28 18:11 45.40317 10.90503 242 ft 11 kts 220°
2026-04-28 18:12 45.40262 10.90428 242 ft 2 kts 225°
2026-04-28 18:12 45.40257 10.90392 242 ft 6 kts 288°
2026-04-28 18:12 45.40289 10.90338 242 ft 8 kts 311°
2026-04-28 18:12 45.40330 10.90273 242 ft 10 kts 292°
2026-04-28 18:13 45.40342 10.90172 242 ft 12 kts 294°
2026-04-28 18:13 45.40377 10.90058 242 ft 9 kts 292°
2026-04-28 18:13 45.40361 10.90001 242 ft 9 kts 225°
2026-04-28 18:13 45.40321 10.89913 244 ft 13 kts 284°
2026-04-28 18:14 45.40385 10.89819 243 ft 14 kts 316°
2026-04-28 18:14 45.40390 10.89696 242 ft 15 kts 225°
2026-04-28 18:14 45.40312 10.89583 243 ft 17 kts 226°
2026-04-28 18:14 45.40228 10.89458 243 ft 18 kts 225°
2026-04-28 18:15 45.40135 10.89327 243 ft 19 kts 225°
2026-04-28 18:15 45.40040 10.89183 242 ft 21 kts 227°
2026-04-28 18:15 45.39938 10.89036 242 ft 22 kts 226°
2026-04-28 18:15 45.39829 10.88879 243 ft 23 kts 225°
2026-04-28 18:16 45.39714 10.88713 243 ft 24 kts 226°
2026-04-28 18:16 45.39595 10.88537 243 ft 25 kts 226°
2026-04-28 18:16 45.39469 10.88355 243 ft 27 kts 225°
2026-04-28 18:16 45.39336 10.88162 243 ft 28 kts 225°
2026-04-28 18:17 45.39206 10.87975 243 ft 16 kts 225°
2026-04-28 18:17 45.39126 10.87859 243 ft 17 kts 226°
2026-04-28 18:17 45.39038 10.87731 243 ft 19 kts 226°
2026-04-28 18:17 45.38944 10.87594 243 ft 20 kts 225°
2026-04-28 18:18 45.38878 10.87503 243 ft 12 kts 205°
2026-04-28 18:18 45.38827 10.87532 244 ft 6 kts 129°
2026-04-28 18:18 45.38790 10.87579 244 ft 8 kts 138°
2026-04-28 18:18 45.38759 10.87618 244 ft 10 kts 138°
2026-04-28 18:19 45.38759 10.87672 245 ft 5 kts 45°
2026-04-28 18:19 45.38760 10.87673 245 ft 0 kts 44°
2026-04-28 18:19 45.38768 10.87684 245 ft 12 kts 44°
2026-04-28 18:19 45.39020 10.88053 244 ft 92 kts 47°
2026-04-28 18:20 45.39649 10.88970 245 ft 164 kts 46°
2026-04-28 18:20 45.40449 10.90193 935 ft 164 kts 49°
2026-04-28 18:20 45.41157 10.91429 1731 ft 163 kts 65°
2026-04-28 18:20 45.41162 10.93045 2064 ft 178 kts 116°
2026-04-28 18:21 45.40403 10.94526 2575 ft 189 kts 128°
2026-04-28 18:21 45.39508 10.95974 3162 ft 201 kts 132°
2026-04-28 18:21 45.38552 10.97506 3727 ft 214 kts 131°
2026-04-28 18:21 45.37509 10.99201 4092 ft 241 kts 131°
2026-04-28 18:22 45.36307 11.00967 4566 ft 261 kts 142°
2026-04-28 18:22 45.34659 11.02113 5267 ft 269 kts 168°
2026-04-28 18:22 45.32788 11.02104 6087 ft 273 kts 194°
2026-04-28 18:22 45.31083 11.00915 6927 ft 277 kts 220°
2026-04-28 18:23 45.29901 10.98755 7735 ft 281 kts 243°
2026-04-28 18:23 45.29115 10.96192 8545 ft 284 kts 247°
2026-04-28 18:23 45.28360 10.93577 9338 ft 288 kts 246°
2026-04-28 18:23 45.27578 10.90954 10123 ft 290 kts 246°
2026-04-28 18:24 45.26751 10.88247 10554 ft 308 kts 245°
2026-04-28 18:24 45.26170 10.86376 10795 ft 320 kts 245°
2026-04-28 18:24 45.24927 10.82425 11551 ft 331 kts 244°
2026-04-28 18:24 45.23739 10.79735 12293 ft 333 kts 231°
2026-04-28 18:25 45.22376 10.76966 13059 ft 335 kts 244°
2026-04-28 18:25 45.21473 10.73912 13795 ft 337 kts 249°
2026-04-28 18:25 45.20591 10.70802 14495 ft 340 kts 248°
2026-04-28 18:26 45.18686 10.64585 15873 ft 347 kts 246°
2026-04-28 18:26 45.17697 10.61499 16524 ft 350 kts 246°
2026-04-28 18:26 45.16676 10.58346 17178 ft 353 kts 246°
2026-04-28 18:26 45.15643 10.55174 17815 ft 356 kts 246°
2026-04-28 18:27 45.14599 10.51976 18431 ft 359 kts 246°
2026-04-28 18:27 45.13544 10.48757 19038 ft 362 kts 246°
2026-04-28 18:27 45.12480 10.45513 19626 ft 364 kts 247°
2026-04-28 18:27 45.11408 10.42239 20190 ft 367 kts 246°
2026-04-28 18:28 45.10324 10.38942 20731 ft 370 kts 247°
2026-04-28 18:28 45.09231 10.35627 21269 ft 374 kts 246°
2026-04-28 18:28 45.08124 10.32281 21802 ft 376 kts 246°
2026-04-28 18:28 45.07027 10.28958 22310 ft 379 kts 247°
2026-04-28 18:29 45.05911 10.25576 22798 ft 381 kts 247°
2026-04-28 18:29 45.04780 10.22166 23286 ft 384 kts 246°
2026-04-28 18:29 45.03641 10.18728 23752 ft 387 kts 247°
2026-04-28 18:29 45.02498 10.15276 24213 ft 389 kts 247°
2026-04-28 18:30 45.01350 10.11799 24660 ft 392 kts 247°
2026-04-28 18:30 45.00955 10.10614 24814 ft 392 kts 246°
2026-04-28 18:30 44.99008 10.04797 25533 ft 396 kts 246°
2026-04-28 18:30 44.97825 10.01267 25956 ft 398 kts 247°
2026-04-28 18:31 44.96643 9.97730 26357 ft 400 kts 246°
2026-04-28 18:31 44.95450 9.94157 26754 ft 402 kts 246°
2026-04-28 18:31 44.94253 9.90577 27145 ft 404 kts 246°
2026-04-28 18:31 44.93064 9.87025 27514 ft 406 kts 246°
2026-04-28 18:32 44.91854 9.83419 27886 ft 408 kts 246°
2026-04-28 18:32 44.90628 9.79780 28221 ft 410 kts 246°
2026-04-28 18:32 44.89402 9.76140 28569 ft 412 kts 246°
2026-04-28 18:32 44.88171 9.72483 28904 ft 413 kts 246°
2026-04-28 18:33 44.86935 9.68817 29228 ft 415 kts 246°
2026-04-28 18:33 44.85689 9.65135 29531 ft 417 kts 246°
2026-04-28 18:33 44.84434 9.61429 29861 ft 419 kts 246°
2026-04-28 18:33 44.83192 9.57770 30183 ft 419 kts 246°
2026-04-28 18:34 44.81929 9.54064 30549 ft 419 kts 246°
2026-04-28 18:34 44.80664 9.50365 30926 ft 418 kts 246°
2026-04-28 18:34 44.79408 9.46679 31315 ft 416 kts 246°
2026-04-28 18:34 44.78588 9.44239 31561 ft 415 kts 246°
2026-04-28 18:35 44.77347 9.40574 31929 ft 414 kts 246°
2026-04-28 18:35 44.76101 9.36931 32273 ft 413 kts 246°
2026-04-28 18:35 44.74857 9.33289 32592 ft 411 kts 246°
2026-04-28 18:35 44.73620 9.29670 32917 ft 411 kts 246°
2026-04-28 18:36 44.72380 9.26054 32999 ft 411 kts 246°
2026-04-28 18:36 44.69904 9.18817 33017 ft 410 kts 246°
2026-04-28 18:37 44.67414 9.11599 33010 ft 410 kts 246°
2026-04-28 18:37 44.64923 9.04396 33011 ft 410 kts 246°
2026-04-28 18:38 44.62445 8.97221 33011 ft 410 kts 246°
2026-04-28 18:38 44.59931 8.90025 33021 ft 411 kts 246°
2026-04-28 18:39 44.57424 8.82840 33016 ft 411 kts 246°
2026-04-28 18:39 44.54917 8.75626 33021 ft 411 kts 245°
2026-04-28 18:40 44.52395 8.68435 33015 ft 411 kts 246°
2026-04-28 18:40 44.49860 8.61214 33029 ft 412 kts 245°
2026-04-28 18:41 44.47337 8.54056 33022 ft 412 kts 245°
2026-04-28 18:41 44.44802 8.46865 33019 ft 412 kts 245°
2026-04-28 18:42 44.42261 8.39658 33021 ft 413 kts 245°
2026-04-28 18:42 44.39704 8.32450 33028 ft 414 kts 245°
2026-04-28 18:43 44.37141 8.25248 33022 ft 414 kts 245°
2026-04-28 18:43 44.34563 8.18043 33018 ft 415 kts 245°
2026-04-28 18:44 44.31979 8.10834 33025 ft 415 kts 245°
2026-04-28 18:44 44.28106 8.00023 33018 ft 415 kts 245°
2026-04-28 18:45 44.25507 7.92822 33025 ft 416 kts 244°
2026-04-28 18:45 44.22914 7.85612 33023 ft 416 kts 244°
2026-04-28 18:46 44.20311 7.78410 33016 ft 416 kts 244°
2026-04-28 18:46 44.17702 7.71224 33026 ft 415 kts 244°
2026-04-28 18:47 44.15083 7.64115 33021 ft 415 kts 242°
2026-04-28 18:47 44.11583 7.57699 33023 ft 418 kts 231°
2026-04-28 18:48 44.07739 7.51635 33024 ft 418 kts 230°
2026-04-28 18:48 44.03906 7.45552 33022 ft 418 kts 231°
2026-04-28 18:49 44.00735 7.40504 33026 ft 417 kts 231°
2026-04-28 18:49 43.96275 7.33390 33027 ft 419 kts 231°
2026-04-28 18:50 43.92433 7.27286 33026 ft 420 kts 230°
2026-04-28 18:50 43.88577 7.21209 33016 ft 419 kts 230°
2026-04-28 18:51 43.84723 7.15131 33026 ft 420 kts 230°
2026-04-28 18:51 43.80883 7.09044 33018 ft 419 kts 231°
2026-04-28 18:52 43.77036 7.02967 33020 ft 419 kts 230°
2026-04-28 18:52 43.73215 6.96885 33029 ft 418 kts 233°
2026-04-28 18:53 43.71651 6.93531 33030 ft 416 kts 244°
2026-04-28 18:53 43.70481 6.89882 33033 ft 416 kts 248°
2026-04-28 18:53 43.68356 6.82502 33027 ft 415 kts 249°
2026-04-28 18:54 43.66200 6.75096 33022 ft 415 kts 248°
2026-04-28 18:54 43.64018 6.67699 33023 ft 416 kts 248°
2026-04-28 18:55 43.62175 6.61514 33019 ft 415 kts 248°
2026-04-28 18:55 43.59630 6.52930 33019 ft 415 kts 248°
2026-04-28 18:56 43.57433 6.45555 33018 ft 415 kts 248°
2026-04-28 18:56 43.55226 6.38189 33017 ft 415 kts 248°
2026-04-28 18:57 43.53012 6.30832 33017 ft 415 kts 248°
2026-04-28 18:57 43.50817 6.23522 33021 ft 415 kts 248°
2026-04-28 18:58 43.48594 6.16172 33022 ft 415 kts 248°
2026-04-28 18:58 43.46368 6.08835 33022 ft 415 kts 248°
2026-04-28 18:59 43.44129 6.01496 33020 ft 415 kts 248°
2026-04-28 18:59 43.41904 5.94170 33020 ft 414 kts 248°
2026-04-28 19:00 43.39677 5.86851 33020 ft 415 kts 248°
2026-04-28 19:00 43.37434 5.79530 33020 ft 415 kts 247°
2026-04-28 19:01 43.35186 5.72214 33015 ft 415 kts 247°
2026-04-28 19:01 43.32942 5.64917 33015 ft 415 kts 247°
2026-04-28 19:02 43.30681 5.57614 33021 ft 415 kts 247°
2026-04-28 19:02 43.28438 5.50360 33022 ft 415 kts 247°
2026-04-28 19:03 43.26178 5.43059 33022 ft 416 kts 247°
2026-04-28 19:03 43.23889 5.35748 33018 ft 416 kts 247°
2026-04-28 19:04 43.21607 5.28445 33021 ft 416 kts 247°
2026-04-28 19:04 43.19327 5.21161 33018 ft 416 kts 246°
2026-04-28 19:05 43.17040 5.13878 33022 ft 416 kts 246°
2026-04-28 19:05 43.14755 5.06635 33021 ft 416 kts 246°
2026-04-28 19:06 43.12853 5.00577 33019 ft 416 kts 246°
2026-04-28 19:06 43.10170 4.92068 33021 ft 416 kts 246°
2026-04-28 19:07 43.07849 4.84808 33020 ft 416 kts 246°
2026-04-28 19:07 43.05244 4.77756 33016 ft 416 kts 236°
2026-04-28 19:08 43.03337 4.74782 33017 ft 417 kts 224°
2026-04-28 19:08 43.01201 4.72205 33021 ft 417 kts 221°
2026-04-28 19:08 42.96795 4.67008 33020 ft 417 kts 222°
2026-04-28 19:09 42.92432 4.61775 33020 ft 417 kts 222°
2026-04-28 19:09 42.88077 4.56527 33020 ft 417 kts 222°
2026-04-28 19:10 42.83730 4.51290 33019 ft 417 kts 222°
2026-04-28 19:10 42.79401 4.46105 33018 ft 417 kts 222°
2026-04-28 19:11 42.75045 4.40894 33020 ft 417 kts 222°
2026-04-28 19:11 42.70683 4.35691 33017 ft 417 kts 222°
2026-04-28 19:12 42.66325 4.30482 33012 ft 417 kts 222°
2026-04-28 19:12 42.61985 4.25311 33012 ft 417 kts 222°
2026-04-28 19:13 42.57617 4.20126 33011 ft 417 kts 221°
2026-04-28 19:13 42.53239 4.14940 33005 ft 418 kts 222°
2026-04-28 19:14 42.48865 4.09758 33000 ft 418 kts 222°
2026-04-28 19:14 42.44487 4.04573 32996 ft 417 kts 221°
2026-04-28 19:15 42.40105 3.99408 32993 ft 418 kts 221°
2026-04-28 19:15 42.37204 3.96000 32994 ft 417 kts 221°
2026-04-28 19:16 42.31352 3.89157 32994 ft 417 kts 221°
2026-04-28 19:16 42.26965 3.83995 32981 ft 417 kts 223°
2026-04-28 19:17 42.23304 3.77935 32982 ft 417 kts 234°
2026-04-28 19:17 42.19989 3.71513 32976 ft 417 kts 235°
2026-04-28 19:18 42.16642 3.65127 32980 ft 417 kts 234°
2026-04-28 19:18 42.13294 3.58792 32980 ft 417 kts 234°
2026-04-28 19:19 42.09926 3.52433 32982 ft 417 kts 234°
2026-04-28 19:19 42.06551 3.46083 32976 ft 417 kts 234°
2026-04-28 19:20 42.03721 3.40776 32982 ft 417 kts 234°
2026-04-28 19:20 42.00342 3.34437 32976 ft 417 kts 234°
2026-04-28 19:21 41.96978 3.28110 32975 ft 420 kts 234°
2026-04-28 19:21 41.93558 3.21712 32972 ft 421 kts 234°
2026-04-28 19:22 41.90715 3.16405 32977 ft 421 kts 234°
2026-04-28 19:22 41.86711 3.08954 32971 ft 420 kts 234°
2026-04-28 19:23 41.83291 3.02644 32962 ft 420 kts 234°
2026-04-28 19:23 41.79847 2.96294 32959 ft 421 kts 234°
2026-04-28 19:24 41.76420 2.89925 32964 ft 421 kts 234°
2026-04-28 19:24 41.72985 2.83556 32956 ft 421 kts 234°
2026-04-28 19:25 41.69540 2.77190 32956 ft 422 kts 234°
2026-04-28 19:25 41.65978 2.70927 32966 ft 422 kts 232°
2026-04-28 19:26 41.62365 2.64724 32965 ft 422 kts 232°
2026-04-28 19:26 41.58777 2.58560 32959 ft 421 kts 232°
2026-04-28 19:27 41.55166 2.52387 32951 ft 421 kts 232°
2026-04-28 19:27 41.51556 2.46221 32953 ft 422 kts 232°
2026-04-28 19:28 41.47941 2.40043 32943 ft 423 kts 232°
2026-04-28 19:28 41.44310 2.33868 32940 ft 423 kts 232°
2026-04-28 19:29 41.41292 2.28740 32940 ft 423 kts 232°
2026-04-28 19:29 41.37073 2.21582 32941 ft 423 kts 232°
2026-04-28 19:30 41.33436 2.15423 32940 ft 423 kts 232°
2026-04-28 19:30 41.30548 2.08655 32929 ft 423 kts 252°
2026-04-28 19:31 41.29489 2.00936 32931 ft 424 kts 261°
2026-04-28 19:31 41.28649 1.93179 32930 ft 423 kts 261°
2026-04-28 19:32 41.27772 1.85437 32936 ft 423 kts 260°
2026-04-28 19:32 41.26876 1.77753 32937 ft 424 kts 261°
2026-04-28 19:33 41.25966 1.70015 32942 ft 424 kts 260°
2026-04-28 19:33 41.25036 1.62285 32940 ft 423 kts 260°